Regional Weather Roundup
Issued by NWS

Home | Current Version | Previous Version | Graphics & Text | Print | Product List | Glossary On
Versions: 1 2 3 4 5 6 7 8 9 10 11 12 13 14 15 16 17 18 19 20 21 22 23 24 25 26 27 28 29 30 31 32 33 34 35 36 37 38 39 40 41 42 43 44 45 46 47 48 49 50
000
ASUS45 KBOU 102310
RWRCO

WEATHER ROUNDUP FOR COLORADO
NATIONAL WEATHER SERVICE DENVER/BOULDER CO
500 PM MDT THU JUL 10 2014

NOTE: "FAIR" INDICATES FEW OR NO CLOUDS BELOW 12000 FEET WITH NO
SIGNIFICANT WEATHER AND/OR OBSTRUCTIONS TO VISIBILITY.

COZ001>005-013-030-031-110000-
...NORTHWEST COLORADO...

CITY           SKY/WX    TMP DP  RH WIND       PRES   REMARKS
CRAIG          PTSUNNY   81  46  29 SW15      30.06F
HAYDEN         PTSUNNY   82  43  24 SW7       30.09F
MEEKER         PTSUNNY   79  49  34 NW9       30.09F
MOUNT WERNER   NOT AVBL
STEAMBOAT SPGS PTSUNNY   78  51  38 S7        30.12F
WALDEN         PTSUNNY   77  41  27 S8        30.21F
$$

COZ006>008-011-110000-
...WEST CENTRAL VALLEYS...

CITY           SKY/WX    TMP DP  RH WIND       PRES   REMARKS
GRAND JUNCTION MOSUNNY   91  49  23 CALM      29.94F
MONTROSE       MOSUNNY   87  49  26 N7        30.04F
EAGLE          PTSUNNY   88  43  20 W12       30.09F
RIFLE          MOSUNNY   88  46  23 CALM      29.99F
DELTA          MOSUNNY   94  46  19 S8        29.98F
NUCLA          MOSUNNY   84  45  24 W9        30.10F
$$

COZ017>023-064>068-110000-
...SOUTHWEST COLORADO...

CITY           SKY/WX    TMP DP  RH WIND       PRES   REMARKS
DURANGO        RAIN      75  54  47 E17       30.12F
CORTEZ         SUNNY     89  47  23 NW8       30.06F THUNDER
PAGOSA SPRINGS PTSUNNY   72  49  44 CALM      30.24F THUNDER
TELLURIDE      PTSUNNY   72  46  40 SW3       30.34S THUNDER
WOLF CREEK PAS NOT AVBL
$$

COZ009-010-012-014-032>034-037-058>063-110000-
...CENTRAL COLORADO...

CITY           SKY/WX    TMP DP  RH WIND       PRES   REMARKS
ASPEN          MOSUNNY   80  44  27 VRB5      30.19F
BUENA VISTA    CLOUDY    75  39  27 S23G30    30.22R
COPPER MTN     CLOUDY    55  36  47 W12       30.59S
BERTHOUD PASS  CLOUDY    46  32  57 MISG      30.64S
COTTONWOOD PAS CLOUDY    68  37  32 S31       30.37F
GUNNISON       PTSUNNY   75  43  31 SW15G24   30.23S
KREMMLING      CLOUDY    77  43  29 E15       30.17R THUNDER
LEADVILLE      CLOUDY    66  39  37 N6        30.38F
MONARCH PASS   CLOUDY    59  37  44 SW16      30.68R
SALIDA         CLOUDY   N/A N/A N/A CALM      30.25S
SUNLIGHT       MOSUNNY   72  45  37 CALM      30.47F
WILKERSON PASS CLOUDY    64  34  32 CALM      30.54F
$$

COZ069>075-110000-
...SAN LUIS VALLEY/SANGRE DE CRISTO MOUNTAINS...

CITY           SKY/WX    TMP DP  RH WIND       PRES   REMARKS
ALAMOSA        SUNNY     84  43  23 SW7       30.17F
LA VETA PASS   CLOUDY    68  36  30 E7        30.42S
SAGUACHE       NOT AVBL
$$

COZ035-036-038>040-110000-
...NORTHERN COLORADO FRONT RANGE...

CITY           SKY/WX    TMP DP  RH WIND       PRES   REMARKS
DENVER INTL AP PTSUNNY   92  40  16 SE6       29.98F
DMNS CITY PARK   N/A     87  45  23 W9G16     29.97F
AURORA         PTSUNNY   86  43  22 W8G22     30.01S
FRONT RANGE AP PTSUNNY   93  41  16 SE7       29.99
ERIE MUNI ARPT CLOUDY    85  45  24 W12G18    29.96F
BOULDER MUN AP CLOUDY    86  41  20 SW9G17    29.97F
CENTENNIAL     LGT RAIN  83  51  33 NW10G22   30.03R
BROOMFIELD     PTSUNNY   86  48  26 W15       30.02F
FORT COLLINS   PTSUNNY   91  46  21 S13G18    29.93F
LONGMONT       PTSUNNY   92  43  18 SW17G24   29.97F
$$

COZ041-046-047-076>085-087-088-110000-
...PIKES PEAK/PALMER DIVIDE AND SOUTHERN FOOTHILLS...

CITY           SKY/WX    TMP DP  RH WIND       PRES   REMARKS
COLO. SPRINGS  MOSUNNY   89  38  16 S13G23    30.07F
A. F. ACADEMY  PTSUNNY   85  39  19 S9        30.09S
ELLICOTT       NOT AVBL
FALCON         MOSUNNY   89  35  15 SW13G20   30.13F
FORT CARSON    MOSUNNY   92  39  15 S10       30.03F
LIMON          SUNNY     93  36  13 S10G22    29.99F
MONUMENT HILL  PTSUNNY   82  32  16 S14G20    30.13S
TRINIDAD       MOSUNNY   94  42  16 S16G22    30.00F
$$

COZ042>045-048>051-090-091-110000-
...NORTHEAST COLORADO...

CITY           SKY/WX    TMP DP  RH WIND       PRES   REMARKS
GREELEY ARPT   NOT AVBL
AKRON          SUNNY     93  48  21 S20G26    29.95F
BURLINGTON     SUNNY     91  63  39 E18       29.93F
WRAY             N/A     97  56  25 SE15G21   29.89S
STERLING       SUNNY     95  59  30 S5        29.88S
HOLYOKE        SUNNY     95  57  28 S13       29.88F
FORT MORGAN    SUNNY     96  43  16 SE7       29.93F
$$

COZ086-089-092>099-110000-
...SOUTHEAST COLORADO...

CITY           SKY/WX    TMP DP  RH WIND       PRES   REMARKS
PUEBLO         SUNNY     97  35  11 SE14      29.92F
LA JUNTA       SUNNY    100  35  10 VRB5      29.88F
LAMAR          MOSUNNY  102  43  13 S18G24    29.83F
SPRINGFIELD      N/A     95  50  21 S21G26    29.94F
$$


USA.gov is the U.S. government's official web portal to all federal, state and local government web resources and services.